Member area
Imprimable
La Gileppe, 12-14/08/2016, BEL - La Gileppe Trophy Orbea
List of reports > Supercoupe - Result
Search: Page: [1]
216 Entries
 
Complains are not accepted anymore. Results are final.
PlaceNrNameAgeNATTeamRealTimeTkmMoy.Scr
1.6421SAPIEHA Nicolas30BELTRIKV2:16:312:38 22.812
2.6046WUILMUS Wouter31BELCYCO ENDURANCE TEAM2:16:572:39 22.743
3.6035REDING François32BELCCCTRI2:19:022:41 22.405
4.6352FIEVEZ Tim31BEL2:19:092:41 22.386
5.7037D'HARVENG Nicolas33BELTRIGT2:19:562:42 22.257
6.6034HASTIR Julien28BELCCCTRI2:20:082:43 22.228
7.6251BOUVIER Jonas33BELTRIGT2:20:162:43 22.209
8.6289LECOCQ Dimitri28BELTURBO2:21:062:44 22.0710
9.7004CARRERA AKUTAIN Xabier38ESPBIN2:21:152:44 22.0511
10.6121SIMONET Yves34BELP82:21:562:45 21.9413
11.6258ROLIN Boris29BELTRIGT2:22:462:46 21.8115
12.6104UYTTERSPROT Dieter28BELMATT2:24:472:48 21.5118
13.6024CARUSO Matteo33BELBTC2:25:592:49 21.3319
14.7006VAN ESPEN Fabrice28BELBIN2:26:392:50 21.2321
15.6212ADYNS Simon27BELTNT2:27:222:51 21.1323
16.6075LOQUET Thomas33BELETC2:27:422:51 21.0824
17.6006COGELS Olivier35BELATCC2:27:482:51 21.0725
18.6228FREMALLE Benoit26BELTRIATHLIEGE2:27:492:51 21.0726
19.6424NEUMANN Dominik30BELTEAM INDELAND2:28:062:52 21.0327
20.7032NEZER Jimmy33BELTDCH2:28:172:52 21.0029
21.6149PÉTRÉ Maxime27BELRCBT2:28:372:52 20.9530
22.7038D'HARVENG Yves26BELTRIGT2:28:472:52 20.9331
23.6162THÉRER Géry26BELTA2:28:542:53 20.9132
24.6079DELRUE Jonas29BELFTT2:28:572:53 20.9133
25.6171BADER Régis24BELTDCH2:29:412:54 20.8134
26.6106LEFEVRE Alex33BELMTT2:30:592:55 20.6337
27.6222LALLEMAND Remy30BELTRI4US2:31:042:55 20.6138
28.6182EVRARD Jean-François37BELTDCH2:31:242:56 20.5741
29.6229HENQUET Damien34BELTRIATHLIEGE2:31:362:56 20.5442
30.6202SOLTANI Karim38BELTDCH2:32:132:56 20.4643
31.6011IMPENS Nicolas34BELATCC2:32:192:57 20.4544
32.6416BURTOMBOY Gregory39BELTRI4US2:32:502:57 20.3845
33.6143LAUWERS Aurélien31BELRCBT2:33:112:58 20.3346
34.6323BENOIT Thomas34BEL2:33:212:58 20.3147
35.7022NERRINCK Johan37BELFNO62:33:222:58 20.3048
36.6026CLARET-TOURNIER Julien32FRABTC2:33:442:58 20.2650
37.6218LEFÈVRE Aurélien24BELTNT2:35:153:00 20.0656
38.6058PENDERS Adrien30BELESN2:35:283:00 20.0357
39.6376LONSAIN Johannes26NED2:35:303:00 20.0359
40.6029HONY Florent35BELBTC2:35:483:01 19.9960
41.6194LEJEUNE Jean-François37BELTDCH2:36:023:01 19.9661
42.6208VAN EMELEN Gilles28BELTDCH2:36:053:01 19.9562
43.6230KEMPENEERS Cédric37BELTRIATHLIEGE2:36:173:01 19.9363
44.6439GOUBAU Colin31BELBTC2:36:173:01 19.9364
45.6054ALBERT Julien31BELESN2:37:093:02 19.8267
46.6309LANGEREIS Daniël24NEDWTOS2:37:193:02 19.7968
47.6085DESART Julien27BELGTC2:37:353:03 19.7670
48.6061DIDIER Mathieu24BELESN TRIATHLON2:37:453:03 19.7471
49.6213BONOMI Nicolas33BELTNT2:37:453:03 19.7472
50.6188JEUNECHAMPS Pierre-Paul37BELTDCH2:38:003:03 19.7175
51.6017MICHEL Francois26BELBATSTH2:38:033:03 19.7076
52.6122MASSIN Nicolas31BELPASSY MONT BLANC TRIATHLO2:38:073:03 19.7077
53.6240GRANDMAIRE Vincent37BELTRIATHLON ARDENNES2:38:253:04 19.6679
54.6224COUCLET Sebastien32BELTRI692:38:383:04 19.6380
55.6340COUTREZ Alexandre27BEL2:38:413:04 19.6281
56.6062JAMART Guillaume31BELESN TRIATHLON2:38:453:04 19.6282
57.6094GRÉGOIRE Thibaut35BELJETT2:38:473:04 19.6183
58.6053DESOEUVRE Damien29FRAESMGO TRIATHLON2:38:483:04 19.6184
59.7035COLON Jonathan31BELTRIATHLON TEAM RAES2:38:593:04 19.5985
60.6292SCHAEFER Eric35BELTURBO2:39:053:04 19.5886
61.6003LAMBERT Stéphane39BEL57788H772:39:413:05 19.5089
62.6060VICKEVORST Geoffrey30BELESN2:39:553:05 19.4790
63.6427KAUFFMAN Dimitri27BEL2:40:033:06 19.4691
64.7040KARTHEUSER Francois26BELTTF2:40:073:06 19.4592
65.6189JOSKIN Damien28BELTDCH2:40:103:06 19.4493
66.6147OVART Nicolas35BELRCBT2:40:233:06 19.4294
67.6419PETIT Benoit34BELPFA2:40:303:06 19.4095
68.6280BALESTRIE Benoît34BELTURBO2:40:443:06 19.3796
69.6020PINSART Vincent39BELBENCYCLE2:42:103:08 19.2098
70.6364HEYRMAN Jonathan25BEL2:42:293:08 19.17100
71.6013MOINIÉ Gil31BELATCC2:42:573:09 19.11102
72.6235SANFILIPPO Damien32BELTRIATHLIEGE2:43:123:09 19.08103
73.6115DELSOIR Maxime31BELP82:43:463:10 19.02105
74.6049MARECHAL Jérôme32BELENERGYTRI2:43:473:10 19.01106
75.6414WOOS Yannick36BEL2:43:493:10 19.01107
76.7031LEDUC Jérôme28BELTDCH2:43:503:10 19.01108
77.6042TROQUETTE Laurent35BELCOLS MOREAU2:44:423:11 18.91113
78.6130VASSART Quentin32BELPUISSANCE HUY'TEAM2:44:433:11 18.91114
79.6418KLEYNEN Arnaud24BEL2:44:463:11 18.90115
80.6181DUBUISSON Yves36BELTDCH2:44:563:11 18.88118
81.6324BEN SALEM Haythem28TUN2:45:493:12 18.78120
82.7039BAIVIER Alexandre26BELTTF2:46:183:13 18.73124
83.6297HANF Alain35BELTURNVEREIN NIDRUM2:46:203:13 18.72125
84.6254EGGERICKX Pierre28BELTRIGT2:46:233:13 18.72128
85.6365JASON Murray30NZL2:46:363:13 18.69129
86.6028HONORE Vivien30FRABTC2:46:503:13 18.67131
87.6151RASSON Nicolas36BELRCBT2:47:043:14 18.64132
88.6217JAYMAERT Laurent37BELTNT2:47:173:14 18.62134
89.6391PRADELLA Igor35BEL2:47:353:14 18.58136
90.7043LECLERCQ Pierre38BELZATAC LIÈGE2:47:463:14 18.56138
91.7024DEWIT Jerome33BELNSTT2:47:483:14 18.56139
92.6378MARBAISE Daniel32BEL2:48:173:15 18.50143
93.6168GLAUDE Jeremy26BELTCDM2:48:223:15 18.50144
94.6016GROSDENT Sébastien28BELBATSTH2:48:243:15 18.49146
95.6196MARTIN VIRSEDA Nicolas35BELTDCH2:48:363:15 18.47149
96.6114COLLINGE Jerome37BELP82:48:403:15 18.46150
97.6152SANDERS Benjamin30BELRCBT2:48:413:15 18.46151
98.6273BROUWERS Michaël36BELTDCH2:49:003:16 18.43154
99.6219PIBRE Nicolas31BELTNT2:49:073:16 18.41156
100.7026PORTUGAL Frederico39PRTRCBT2:49:513:17 18.33159
101.6288GILLEMAN Florian27BELTURBO2:49:553:17 18.33160
102.6397SAUVAGE Maxime34BEL2:49:553:17 18.33161
103.6265SCHRODER Raphael37BELTRILGE2:50:023:17 18.32163
104.6093VAN STEENDAM Jeroen32BELJESSE VN SPORTCOACHING2:50:093:17 18.30165
105.6250BEGON Olivier38BELTRIFAST2:51:143:18 18.19170
106.6294VAN CAMP Laurent39BELTURBO2:51:203:19 18.18171
107.6174BROUWERS Simon28BELTDCH2:51:593:19 18.11173
108.6293SONCK Samuel30BELTURBO2:52:103:20 18.09174
109.6437CRESPEL Quentin28BELUTT2:52:103:20 18.09175
110.6146MAKUMBA Benjamin39BELRCBT2:52:223:20 18.07176
111.6330BROUTIN Maxime32FRA2:53:083:21 17.99181
112.6321BALLARD Jean-Chrsitophe37BEL2:53:213:21 17.96183
113.6394RICHELLE Olivier33BEL2:53:333:21 17.94185
114.6272DIEPART Nicolas37BELTTF2:53:333:21 17.94186
115.6239GLESNER Pierre27BELTRIATHLON ARDENNES2:53:483:21 17.92189
116.6105VERPOORTEN Massimo37BELMRT2:54:043:22 17.89193
117.6137DRESSE Benoit25BELRCBT2:54:083:22 17.88194
118.6234RENSON Jonathan37BELTRIATHLIEGE2:54:113:22 17.88195
119.6338COLLARD Sebastien28BEL2:54:133:22 17.88196
120.6036DEGEY Benoit31BELCCSTC2:54:223:22 17.86197
121.6148PATRIS Xavier31BELRCBT2:54:593:23 17.80200
122.6261VERCRUYSSE Thibaut28BELTRIGT2:56:073:24 17.68207
123.6271DELHEZ Jonathan33BELTTF2:56:103:24 17.68208
124.6083ROZELAER Fabian33BELGANT2:56:223:24 17.66210
125.6370LANGOHR Julien35BEL2:56:563:25 17.60216
126.7019MIOTLA Philippe38BELETM2:56:563:25 17.60217
127.6238DELHAES Damien35BELTRIATHLON ARDENNES2:56:583:25 17.60219
128.6051MATTART Denis28BELENJAMBÉE2:57:023:25 17.59220
129.6434D'INVERNO Aubry25BEL2:57:083:25 17.58223
130.6124WANTE Emerik33BELPFA2:57:103:25 17.58224
131.7049GILSON Lionel27BEL2:57:113:25 17.58225
132.6291PIERMAN Baptiste26BELTURBO2:57:223:26 17.56226
133.6057MATHÉI Edwin26BELESN2:57:343:26 17.54228
134.6413WINTGENS Thomas26BEL2:57:583:26 17.50230
135.6328BRAGARD Pierre25BEL2:58:023:26 17.49231
136.6155VAN MUYSEWINKEL Cedric39BELRCBT2:58:453:27 17.42236
137.6339COLLOT Simon26BEL2:59:043:28 17.39238
138.6241LUKOWIAK Jérôme26BELTRIATHLON ARDENNES2:59:093:28 17.38239
139.6415BOBENRIETH Alexis29BELTCDM2:59:553:28 17.31242
140.6190LADANG Manuel24BELTDCH3:00:103:29 17.28243
141.6180DELSEMME David39BELTDCH3:00:263:29 17.26245
142.6159DETOURNAY Stéphan38BELSBT3:00:333:29 17.25246
143.6263HASTIR Renaud26BELTRILGE3:00:493:30 17.22248
144.6325BOURDEAUD'HUI Fabrice33BEL3:02:243:31 17.07257
145.6304CECERE Sandro32BELUTT3:02:383:32 17.05259
146.7041COLON Stéphane28BELTTR3:02:563:32 17.02261
147.6354FORTEMPS Grégory29BEL3:03:163:32 16.99263
148.6014ROLAND Bernard39BELATCC3:03:253:33 16.98264
149.6359GOOSSENS Damien32BEL3:03:503:33 16.94267
150.6412VROONEN Matthieu37BEL3:04:083:33 16.91269
151.6175CHARLIER Philippe32BELTDCH3:04:163:34 16.90270
152.6322BELLUCCI Vincent27FRA3:04:263:34 16.88273
153.6369LAMOTTE Jordan37BEL3:04:363:34 16.87275
154.6337CLIP Grégory36BEL3:04:473:34 16.85276
155.6001CLOSE Grégory33BEL3:05:133:35 16.81278
156.6386NICKS Jean-Louis32BEL3:05:533:35 16.75281
157.6223NOËL Kevin30BELTRI4US3:06:113:36 16.73284
158.6408VANLOO Xavier26BEL3:07:513:38 16.58287
159.7025MASSART Xavier29BELRCBT3:07:553:38 16.57288
160.6341DAL MOLIN Bruno36BEL3:07:573:38 16.57289
161.6349ELSEN Olivier30BEL3:07:593:38 16.57291
162.6384MUSIN Renaud38BEL3:08:073:38 16.55292
163.6204TASSIN Pierre29BELTDCH3:08:453:39 16.50294
164.6377MAQUET Renaud28BEL3:09:233:39 16.44296
165.6080ARTS Cédric32BELGANT3:09:343:40 16.43298
166.6270DELFORGE Yves29BELTTF3:09:513:40 16.40299
167.6343DEPIENNE Julien30BEL3:10:573:41 16.31302
168.6056LEKEU François27BELESN3:11:423:42 16.24305
169.6138FRENNET Philippe34BELRCBT3:12:183:43 16.19306
170.6069DESCHUYTENEER Stéphane39BELETC3:12:303:43 16.18309
171.6358GONAY Jérôme29BEL3:12:373:43 16.17311
172.6296WILLAME Thomas25BELTURBO3:12:433:43 16.16313
173.6278PIROTTE Bernard35BELTTF3:14:063:45 16.04319
174.6303CECERE Donato27BELUTT3:14:113:45 16.04320
175.6398SCHEFFERT Laurent31BEL3:15:473:47 15.91327
176.6372LECOMTE Damien33BEL3:16:213:47 15.86332
177.6431HAMACHER Christian29BEL3:16:223:47 15.86333
178.6118MANGUETTE Nicolas30BELP83:16:303:48 15.85335
179.6065BLONDIAUX Maxime34BELENDURANCE TEAM CHIEVRES3:16:323:48 15.85336
180.6048DA VIA François-Xavier29BELENERGY TRI3:17:253:49 15.77339
181.6400SCHUMACKER Loic30BEL3:17:343:49 15.76341
182.6032DIEDEREN Stephen38BELCAP NRB3:18:223:50 15.70343
183.6300GYPENS Julien27BELURBAN TRI TEAM3:18:313:50 15.69344
184.6298COLLÈGE Jean-François37BELURBAN TRI TEAM3:19:013:51 15.65346
185.6371LECLERCQ Damien36BEL3:20:173:52 15.55350
186.6382MIRGUET Guillaume25BEL3:20:423:53 15.52351
187.6388PEHARPRE Romain30BEL3:21:043:53 15.49353
188.6357GOFFART Nicolas29BEL3:21:163:53 15.47355
189.6215D'HULST David34BELTNT3:21:353:54 15.45357
190.6368LALOYAUX Xavier32BEL3:22:123:54 15.40360
191.6436CERFONTAINE Philippe37BEL3:22:363:55 15.37362
192.6438DELVAUX Pierre-Alexandre30BEL3:23:303:56 15.30363
193.6411VROMAN Tom25BEL3:23:563:56 15.27364
194.7044ANTOINE Maxime25BEL3:23:563:56 15.27365
195.6329BRONCHART François27BEL3:23:563:56 15.27366
196.6116DUBOIS Renaud25BELP83:25:023:58 15.19370
197.6125CHEPPE Aurélien33BELPMX3:25:303:58 15.15371
198.6005BONFANTI Thierry35BELATCC3:26:333:59 15.08374
199.6086DIDELEZ Géraud36BELGTC3:29:314:03 14.86383
200.6193LAMBRECHTS Lionel38BELTDCH3:31:254:05 14.73389
201.6326BOUVY Christophe39BEL3:32:274:06 14.66391
202.6331BRUYERE François26BEL3:35:344:10 14.45395
203.6133ADAMS Jean-Louis38BELRCBT3:37:184:12 14.33399
204.6360GROGNA Sébastien39BEL3:47:594:24 13.66410
205.6033ABOU NOUAIM Karim36BELCARIBOOST3:50:454:27 13.50413
206.6385NANOUX Mathieu33BEL3:52:044:29 13.42415
DSQ6050CAMBIER Pierre29BELENJAMBÉE
DNF6099BETHENCOURT Damien25FRALILLE TRIATHLON
DNF6373LEDENT Loïc29BEL
DNF6102PELLEGRINI Jérémy28BELLUPI VELOCI
DNF6392REENAERS Thomas29BEL
DNF6021TAVOLIERI Romuald38BELBENCYCLE
DNF6107TERRITO Joakim24BELNOW TRIATHLON TEAM
DNF6059TIREZ Gilles31BELESN
DNF6247VAN NIEUWENHUYSE Bregt30BELTRIATLON TEAM AALTER
DNF6262VERSTRAETE Maxime27BELTRIGT
DNF: did not finish; DSQ: disqualified; Speed in km/h
Page: [1]